Zurück zum Katalog

STARLINK-32586

AktivKommunikationVLEO
NORAD 61975·PAYLOAD·🇺🇸 United States

Gestartet Nov 14, 2024 von Cape Canaveral Space Force Station

Loading…

Nächste Überflüge (nächste 24 Stunden)

TLE

AktuellSource: CelesTrak SupGP

Epoche: Sep 14, 2026, 22:24 UTC

1 61975C 24210S   26257.93381944 -.00032682  00000+0 -11835-2 0  2579
2 61975  43.0028 191.1113 0001343 262.5136  35.7585 15.27600805    18

Verfolge STARLINK-32586 in Echtzeit mit AllMySat

Download on the App Store